[[{"header":{"parameterUnit":"m.s-1","parameterCategory":1,"la1":30.2991,"la2":30.254,"lo1":-89.0895,"lo2":-89.0444,"dy":0.0017,"dx":0.0017,"nx":28,"ny":28,"refTime":"2025-08-20T03:00:00:Z","depth":0,"parameterNumber":2,"parameterNumberName":"U-component_of_WINDS"},"data":[0,0,0,0,0,0,0,0,0,0,0,0,0,0,0,0,0,0,0,0,0,0,0,0,0,0,0,0,0,0,0,0,0,0,0,0,0,0,0,0,0,0,0,0,0,0,0,0,0,0,0,0,0,0,0,0,0,0,1.7115,1.7116,0,1.7187,1.7187,1.7188,1.7166,1.7164,1.7163,1.7161,1.7237,1.724,1.7244,0,0,0,0,0,0,0,0,0,0,0,0,0,1.696,1.6963,1.7115,1.7116,1.7117,1.7187,1.7188,1.7189,1.7166,1.7164,1.7162,1.716,1.7236,1.724,1.7244,0,0,0,0,0,0,0,0,0,0,0,0,0,1.7029,1.6964,1.7115,1.7114,1.7114,1.7186,1.7188,1.7189,1.7166,1.7164,1.7162,1.716,1.7235,1.724,1.7245,1.7323,0,0,1.7261,1.7263,0,0,0,0,0,0,0,0,1.7026,1.7035,1.7113,1.7114,1.7115,1.7165,1.7161,1.7234,1.7167,1.7147,1.7161,1.7158,1.7215,1.7222,1.724,1.7326,1.7329,1.7261,1.7264,1.7266,1.7268,0,0,0,0,0,0,0,1.7021,1.7032,1.7143,1.7114,1.7115,1.711,1.7118,1.7175,1.7193,1.7148,1.7147,1.7155,1.7215,1.7235,1.7242,1.7331,1.7261,1.7265,1.7269,1.7271,1.7482,1.7484,0,0,0,0,0,0,1.7015,1.7028,1.7141,1.7146,1.7064,1.7115,1.7123,1.7151,1.7192,1.7196,1.7157,1.7154,1.7228,1.7236,1.7244,1.7336,1.7266,1.7271,1.7274,1.748,1.7483,1.7485,0,0,0,0,0,0,1.7012,1.7025,1.7138,1.7086,1.71,1.712,1.7152,1.7154,1.7174,1.7199,1.7202,1.7174,1.7226,1.7237,1.7303,1.7338,1.7273,1.7278,1.7477,1.748,1.7484,1.7521,0,0,0,0,0,0,1.7008,1.7024,1.7054,1.7087,1.7103,1.7195,1.7154,1.7157,1.7182,1.7179,1.7216,1.722,1.7225,1.7295,1.7308,1.7344,1.7282,1.7473,1.7478,1.7483,1.7517,1.7526,1.7534,0,0,0,0,0,1.7002,1.7063,1.7055,1.7069,1.714,1.7197,1.7206,1.721,1.7186,1.7215,1.7231,1.7219,1.7333,1.7302,1.7316,1.7355,1.7471,1.7477,1.7482,1.7513,1.7524,1.7533,0,0,0,0,0,0,1.7034,1.7067,1.7059,1.7132,1.7162,1.7193,1.723,1.7222,1.726,1.7255,1.7259,1.7268,1.7334,1.7352,1.7316,1.7432,1.7399,1.7407,1.7417,1.7428,1.7436,1.7429,1.7287,0,0,0,0,0,1.7049,1.7092,1.7119,1.7181,1.7196,1.7211,1.7236,1.7236,1.7267,1.728,1.7301,1.7332,1.7375,1.7403,1.7444,1.752,1.7527,1.7554,1.7562,1.7569,1.7576,1.7615,1.7627,1.7504,1.7504,1.7504,0,0,1.7081,1.7105,1.7132,1.7187,1.721,1.7254,1.7221,1.727,1.7302,1.7287,1.7349,1.7366,1.7401,1.7472,1.7504,1.7488,1.7612,1.7576,1.7581,1.7585,1.7622,1.7634,1.7644,1.7508,1.7507,1.7506,0,0,1.7162,1.7185,1.7237,1.7261,1.7295,1.7305,1.7318,1.735,1.736,1.7422,1.7412,1.7451,1.7525,1.755,1.7572,1.7662,1.7651,1.7676,1.7718,1.7757,1.7766,1.7775,1.7804,1.7815,1.7683,1.7683,1.7683,0,1.7197,1.7262,1.7266,1.7314,1.7339,1.7327,1.738,1.7403,1.745,1.7467,1.7449,1.754,1.7563,1.7638,1.766,1.7679,1.7693,1.767,1.7765,1.7773,1.7781,1.7809,1.7821,1.7685,1.7685,1.7685,1.7685,0,1.7303,1.7349,1.7387,1.7431,1.746,1.7511,1.7522,1.7551,1.755,1.7561,1.7624,1.7652,1.7697,1.7716,1.7715,1.7791,1.7779,1.7763,1.7729,1.7795,1.7822,1.7833,1.7689,1.7688,1.7687,1.7687,0,0,1.7404,1.7448,1.7462,1.7481,1.7519,1.7554,1.7604,1.7647,1.7671,1.7705,1.7746,1.7809,1.7793,1.7819,1.7822,1.7856,1.7922,1.7835,1.7836,1.7848,1.8004,1.8014,1.8026,1.7916,1.7918,1.792,1.8,0,1.7485,1.7572,1.7576,1.7655,1.7696,1.7686,1.7729,1.7757,1.7769,1.7807,1.7821,1.7864,1.7842,1.7857,1.7891,1.7907,1.7953,1.7901,1.7953,1.7955,1.7942,1.804,1.8051,1.8125,1.8011,1.8013,1.8014,0,1.7591,1.7625,1.7708,1.7738,1.7755,1.7794,1.7833,1.7869,1.7901,1.7907,1.7935,1.7933,1.7984,1.7951,1.8021,1.7986,1.8008,1.8019,1.8022,1.8025,1.7986,1.8043,1.815,1.8159,1.8031,1.8029,1.8028,0,1.7652,1.772,1.7777,1.7794,1.7832,1.7859,1.7876,1.7905,1.793,1.7965,1.7981,1.8023,1.8045,1.8077,1.8085,1.8061,1.8155,1.8123,1.816,1.816,1.8178,1.8177,1.8287,1.8198,1.8197,1.8197,1.8197,0,1.774,1.7791,1.7805,1.784,1.7896,1.7901,1.7956,1.7972,1.7998,1.8036,1.8031,1.8067,1.8077,1.8115,1.8122,1.8178,1.8189,1.8195,1.8196,1.8194,1.8193,1.8206,1.82,1.82,1.82,1.8199,1.8198,0,1.7817,1.7829,1.789,1.7921,1.7929,1.7969,1.7995,1.8029,1.804,1.8088,1.81,1.8119,1.8163,1.8175,1.8229,1.8234,1.8299,1.8296,1.8287,1.8286,1.8322,1.8318,1.8443,1.8459,1.8362,1.8363,1.8363,0,1.7871,1.7909,1.7943,1.7967,1.7985,1.8025,1.805,1.8058,1.8084,1.8123,1.8151,1.8195,1.8229,1.83,1.8319,1.836,1.8357,1.8398,1.8363,1.8359,1.8354,1.835,1.8353,1.8403,1.8404,1.8405,1.8406,0,1.7965,1.7969,1.8005,1.8043,1.8073,1.8104,1.8133,1.8154,1.8165,1.8196,1.824,1.8267,1.832,1.8363,1.8404,1.8422,1.8416,1.8417,1.8428,1.8424,1.8416,1.8418,1.8302,1.8414,1.8413,1.8412,1.8412,1.8412,1.803,1.8062,1.8091,1.8131,1.8154,1.8181,1.8213,1.8229,1.8266,1.8309,1.8312,1.836,1.839,1.8444,1.8464,1.8502,1.8489,1.8505,1.8509,1.8512,1.8513,1.8413,1.851,1.8509,1.8509,1.8509,1.8509,0,1.8121,1.8138,1.8176,1.8216,1.8248,1.8239,1.8271,1.8298,1.8339,1.8368,1.8402,1.8452,1.8493,1.8515,1.8556,1.8582,1.858,1.8592,1.8589,1.8592,1.8523,1.8509,1.8593,1.8593,1.8593,1.8593,1.8593,1.8593,1.8171,1.8225,1.8232,1.8297,1.8315,1.8361,1.8379,1.8404,1.8427,1.8483,1.8516,1.853,1.8556,1.8598,1.8636,1.8641,1.8655,1.8669,1.8672,1.8606,1.8598,1.8589,1.8576,1.8672,1.8672,1.8738,1.8739,1.8739]},{"header":{"parameterUnit":"m.s-1","parameterCategory":1,"la1":30.2991,"la2":30.254,"lo1":-89.0895,"lo2":-89.0444,"dy":0.0017,"dx":0.0017,"nx":28,"ny":28,"refTime":"2025-08-20T03:00:00:Z","depth":0,"parameterNumber":3,"parameterNumberName":"V-component_of_WINDS"},"data":[0,0,0,0,0,0,0,0,0,0,0,0,0,0,0,0,0,0,0,0,0,0,0,0,0,0,0,0,0,0,0,0,0,0,0,0,0,0,0,0,0,0,0,0,0,0,0,0,0,0,0,0,0,0,0,0,0,0,1.8531,1.8529,0,1.8396,1.8394,1.8393,1.8252,1.825,1.8248,1.8246,1.8102,1.81,1.8098,0,0,0,0,0,0,0,0,0,0,0,0,0,1.8662,1.8661,1.8531,1.8529,1.8528,1.8396,1.8394,1.8392,1.8252,1.825,1.8247,1.8245,1.8103,1.81,1.8098,0,0,0,0,0,0,0,0,0,0,0,0,0,1.8574,1.866,1.8531,1.8442,1.8433,1.8397,1.8394,1.8392,1.8253,1.825,1.8247,1.8244,1.8103,1.81,1.8097,1.8137,0,0,1.8088,1.8087,0,0,0,0,0,0,0,0,1.8579,1.8569,1.8457,1.8448,1.8438,1.8338,1.8387,1.8306,1.8253,1.8321,1.8246,1.8243,1.8182,1.8173,1.8153,1.813,1.8124,1.8088,1.8086,1.8085,1.8084,0,0,0,0,0,0,0,1.8585,1.8574,1.8477,1.8455,1.8444,1.8407,1.8391,1.8371,1.8269,1.8315,1.8304,1.829,1.8176,1.8157,1.8149,1.8122,1.8088,1.8085,1.8083,1.8082,1.8123,1.8125,0,0,0,0,0,0,1.8606,1.858,1.8482,1.8473,1.8503,1.8407,1.8389,1.8373,1.8269,1.8251,1.8293,1.8284,1.8163,1.8153,1.8144,1.8182,1.8085,1.8082,1.808,1.812,1.8123,1.8126,0,0,0,0,0,0,1.8609,1.8598,1.8487,1.8524,1.8507,1.8408,1.839,1.8372,1.8352,1.8253,1.8233,1.8292,1.8161,1.8148,1.814,1.8175,1.808,1.8078,1.8116,1.8121,1.8125,1.8261,0,0,0,0,0,0,1.8614,1.8601,1.8616,1.8525,1.8506,1.8488,1.8392,1.8371,1.8348,1.8335,1.8247,1.8229,1.8157,1.8145,1.8137,1.8169,1.8075,1.8113,1.8118,1.8124,1.8253,1.8269,1.8284,0,0,0,0,0,1.8619,1.8658,1.8617,1.8606,1.8523,1.849,1.8478,1.8397,1.8351,1.8365,1.8301,1.8232,1.8173,1.8146,1.8135,1.8167,1.811,1.8117,1.8123,1.8246,1.8266,1.8283,0,0,0,0,0,0,1.8753,1.8645,1.8598,1.861,1.8561,1.8467,1.8481,1.8421,1.8382,1.8371,1.827,1.8251,1.8255,1.821,1.8181,1.8199,1.8132,1.8137,1.8229,1.8247,1.8262,1.8273,1.8073,0,0,0,0,0,1.8785,1.8769,1.8674,1.8693,1.8671,1.8581,1.8564,1.8505,1.8449,1.8427,1.8363,1.831,1.8278,1.826,1.8226,1.8246,1.8224,1.8263,1.8278,1.8291,1.8296,1.8303,1.8318,1.8148,1.8148,1.8148,0,0,1.8848,1.8787,1.8783,1.8719,1.8674,1.8658,1.8564,1.8552,1.8538,1.8424,1.8413,1.8365,1.8298,1.8304,1.8303,1.8267,1.8339,1.83,1.8311,1.8308,1.8311,1.8327,1.8342,1.8152,1.8152,1.8151,0,0,1.8957,1.891,1.8921,1.8878,1.8812,1.8751,1.8754,1.8669,1.8633,1.8621,1.8535,1.8517,1.8466,1.8423,1.8394,1.8487,1.8421,1.8478,1.8559,1.8566,1.8579,1.8591,1.8623,1.8636,1.8484,1.8484,1.8484,0,1.9044,1.9019,1.8933,1.8926,1.89,1.8798,1.8808,1.877,1.8695,1.8679,1.8639,1.8574,1.8522,1.8516,1.8539,1.8519,1.8518,1.8488,1.8585,1.8595,1.8605,1.8634,1.8647,1.8492,1.8491,1.849,1.8489,0,1.9129,1.9113,1.913,1.9063,1.9038,1.904,1.8953,1.8938,1.8882,1.8825,1.8814,1.8748,1.8699,1.8694,1.8638,1.868,1.8659,1.8604,1.8534,1.863,1.8656,1.8667,1.8502,1.8499,1.8497,1.8495,0,0,1.9318,1.9204,1.9212,1.918,1.91,1.9085,1.9081,1.9035,1.9024,1.8976,1.897,1.893,1.8878,1.8846,1.8784,1.8791,1.8868,1.8734,1.8731,1.8761,1.891,1.8952,1.8966,1.8825,1.8827,1.8828,1.8915,0,1.9412,1.9401,1.9324,1.9335,1.9318,1.9222,1.9218,1.9168,1.9115,1.9092,1.9032,1.9006,1.894,1.892,1.8922,1.8859,1.8896,1.8851,1.8816,1.8816,1.8836,1.898,1.9024,1.9109,1.8925,1.8926,1.8928,0,1.952,1.9481,1.9491,1.9411,1.9401,1.94,1.9352,1.9331,1.9272,1.9233,1.9198,1.9129,1.9117,1.9053,1.9035,1.9006,1.8987,1.8954,1.8955,1.8948,1.8877,1.8976,1.9135,1.9148,1.8943,1.8942,1.8941,0,1.9656,1.9606,1.9605,1.9581,1.9488,1.9489,1.945,1.9388,1.9365,1.9323,1.9307,1.9263,1.9239,1.9205,1.9126,1.9086,1.9117,1.9046,1.9083,1.9085,1.9093,1.9094,1.925,1.9083,1.9082,1.9082,1.9082,0,1.9769,1.9779,1.9666,1.9665,1.9673,1.9584,1.9593,1.9544,1.949,1.9477,1.939,1.9379,1.9275,1.9252,1.9189,1.9184,1.9174,1.9141,1.9124,1.9148,1.9153,1.9134,1.9126,1.9085,1.9085,1.9084,1.9084,0,1.9922,1.9847,1.984,1.9753,1.9731,1.9741,1.9665,1.966,1.9603,1.9587,1.9579,1.9488,1.9456,1.9374,1.932,1.9278,1.929,1.9259,1.9311,1.93,1.9342,1.9339,1.9491,1.9506,1.9331,1.9332,1.9334,0,1.9999,2.0005,1.9919,1.9905,1.987,1.9849,1.9826,1.9738,1.9718,1.9651,1.9654,1.9616,1.9581,1.9535,1.9462,1.9421,1.9388,1.9444,1.9381,1.9405,1.9388,1.9388,1.9388,1.9458,1.946,1.9462,1.9464,0,2.0143,2.0106,2.0078,2.0037,2.0012,1.9975,1.9933,1.9926,1.9827,1.9808,1.9776,1.9749,1.9695,1.9658,1.9606,1.9563,1.9497,1.9485,1.9491,1.9515,1.9545,1.9529,1.9348,1.9481,1.9479,1.9478,1.9477,1.9476,2.026,2.026,2.0201,2.0172,2.0131,2.0094,2.0085,2.0027,2.0,1.9951,1.99,1.9873,1.9812,1.9735,1.9697,1.9674,1.9639,1.9649,1.9651,1.9654,1.9665,1.955,1.9664,1.9663,1.9663,1.9662,1.9662,0,2.0399,2.0356,2.0331,2.0275,2.0253,2.0195,2.0145,2.0129,2.0107,2.0057,2.0025,1.9988,1.9952,1.9878,1.9834,1.983,1.9798,1.9821,1.982,1.9811,1.9699,1.9698,1.9848,1.9848,1.9848,1.9848,1.9848,1.9848,2.0469,2.0467,2.0423,2.0399,2.0355,2.033,2.0306,2.0271,2.0231,2.0194,2.0165,2.0117,2.0057,2.0008,1.9972,1.9951,1.9939,1.9972,1.9941,1.9837,1.9819,1.9803,1.9801,1.997,1.997,2.0055,2.0056,2.0056]}]]